EW9528 Weather Reports


Display with metric or nautical units.
time (UTC)temp
F
wind
direction
speed
MPH
gust
MPH
rain 1hr
in
rain 24hr
in
rain mn
in
humidity
%
barometer
mb
20210513092316 49 292 1.0 1.0 0.00 0.00 0.00 41 1022.3
20210513091317 49 270 1.0 1.0 0.00 0.00 0.00 38 1022.3
20210513091217 49 270 1.0 1.0 0.00 0.00 0.00 38 1022.3
20210513090217 50 270 0.0 1.0 0.00 0.00 0.00 35 1022.1
20210513090116 50 270 0.0 1.0 0.00 0.00 0.00 35 1022.2
20210513090018 50 270 2.0 2.0 0.00 0.00 0.00 35 1022.2
20210513085018 51 315 1.0 2.0 0.00 0.00 0.00 33 1022.3
20210513084018 52 315 0.0 1.0 0.00 0.00 0.00 30 1022.5
20210513083116 54 315 1.0 1.0 0.00 0.00 0.00 28 1022.6
20210513083017 54 315 1.0 2.0 0.00 0.00 0.00 29 1022.5
20210513082017 54 294 3.0 4.0 0.00 0.00 0.00 29 1022.5
20210513081017 54 295 3.0 4.0 0.00 0.00 0.00 28 1022.6
20210513080117 54 330 3.0 4.0 0.00 0.00 0.00 29 1022.6
20210513075117 54 337 2.0 3.0 0.00 0.00 0.00 29 1022.8
20210513074119 54 332 4.0 6.0 0.00 0.00 0.00 28 1022.8
20210513073135 53 311 3.0 4.0 0.00 0.00 0.00 29 1022.8
20210513072120 53 321 3.0 5.0 0.00 0.00 0.00 30 1022.8
20210513072017 53 303 5.0 8.0 0.00 0.00 0.00 29 1022.8
20210513071019 54 322 2.0 3.0 0.00 0.00 0.00 28 1023.0
20210513070017 54 315 4.0 6.0 0.00 0.00 0.00 31 1022.9
20210513065116 53 290 3.0 4.0 0.00 0.00 0.00 35 1022.8
20210513064118 52 310 2.0 3.0 0.00 0.00 0.00 36 1023.0
20210513063117 51 270 3.0 4.0 0.00 0.00 0.00 39 1022.8
20210513062215 51 247 0.0 0.0 0.00 0.00 0.00 36 1022.8
20210513062117 51 247 0.0 0.0 0.00 0.00 0.00 36 1022.8
20210513061119 52 247 0.0 1.0 0.00 0.00 0.00 35 1022.8
20210513060217 53 247 1.0 2.0 0.00 0.00 0.00 34 1022.9
20210513055227 54 247 0.0 1.0 0.00 0.00 0.00 33 1022.8
20210513054227 54 247 2.0 2.0 0.00 0.00 0.00 32 1022.8
20210513053326 55 247 1.0 1.0 0.00 0.00 0.00 33 1022.8
20210513052328 54 247 2.0 3.0 0.00 0.00 0.00 33 1022.8
20210513051326 54 225 0.0 0.0 0.00 0.00 0.00 35 1022.9
20210513050328 54 225 0.0 0.0 0.00 0.00 0.00 32 1022.8
20210513045327 56 225 0.0 0.0 0.00 0.00 0.00 30 1022.9
20210513045229 56 225 0.0 0.0 0.00 0.00 0.00 30 1022.8
20210513044327 56 225 1.0 1.0 0.00 0.00 0.00 31 1022.6
20210513043329 56 225 1.0 2.0 0.00 0.00 0.00 29 1022.8
20210513042327 57 225 0.0 2.0 0.00 0.00 0.00 30 1022.8
20210513041426 58 225 1.0 2.0 0.00 0.00 0.00 29 1022.7
20210513041327 58 225 1.0 1.0 0.00 0.00 0.00 28 1022.8
20210513040327 59 225 2.0 3.0 0.00 0.00 0.00 26 1022.8
20210513040226 59 225 2.0 2.0 0.00 0.00 0.00 26 1022.7
20210513035227 62 337 0.0 0.0 0.00 0.00 0.00 24 1022.5
20210513035127 62 337 0.0 0.0 0.00 0.00 0.00 24 1022.5
20210513034225 62 337 2.0 3.0 0.00 0.00 0.00 24 1022.6
20210513033228 62 337 3.0 4.0 0.00 0.00 0.00 25 1022.5
20210513032228 62 337 3.0 5.0 0.00 0.00 0.00 25 1022.6
20210513031227 62 348 3.0 4.0 0.00 0.00 0.00 24 1022.5
20210513030228 63 347 2.0 4.0 0.00 0.00 0.00 23 1022.3
20210513025327 63 344 3.0 5.0 0.00 0.00 0.00 23 1022.4
20210513024328 64 351 3.0 5.0 0.00 0.00 0.00 22 1022.1
20210513024226 64 4 3.0 4.0 0.00 0.00 0.00 23 1022.2
20210513023326 66 360 3.0 6.0 0.00 0.00 0.00 21 1022.1
20210513022327 67 353 4.0 6.0 0.00 0.00 0.00 21 1022.1
20210513021348 71 157 1.0 2.0 0.00 0.00 0.00 16 1021.8
20210513020445 72 166 4.0 7.0 0.00 0.00 0.00 16 1022.1
20210513020437 72 160 4.0 7.0 0.00 0.00 0.00 16 1022.1
20210513020434 72 142 3.0 5.0 0.00 0.00 0.00 16 1022.0
20210512235927 71 164 4.0 6.0 0.00 0.00 0.00 16 1022.2
20210512235844 71 149 3.0 6.0 0.00 0.00 0.00 15 1022.1
20210512234926 72 143 5.0 7.0 0.00 0.00 0.00 15 1022.1
20210512234026 71 177 3.0 5.0 0.00 0.00 0.00 15 1022.3
20210512233027 71 176 5.0 8.0 0.00 0.00 0.00 16 1022.3
20210512232029 71 159 6.0 8.0 0.00 0.00 0.00 15 1022.3
20210512231126 71 143 4.0 5.0 0.00 0.00 0.00 16 1022.3
20210512231026 71 133 4.0 6.0 0.00 0.00 0.00 15 1022.4
20210512230031 71 103 2.0 4.0 0.00 0.00 0.00 16 1022.5
20210512225126 72 168 5.0 7.0 0.00 0.00 0.00 17 1022.5
20210512224226 72 111 3.0 7.0 0.00 0.00 0.00 17 1022.5
20210512223244 70 124 3.0 6.0 0.00 0.00 0.00 18 1022.7
20210512222231 70 116 7.0 9.0 0.00 0.00 0.00 18 1022.7
20210512221227 71 97 4.0 7.0 0.00 0.00 0.00 18 1023.0
20210512221128 71 113 5.0 8.0 0.00 0.00 0.00 18 1023.0
20210512220128 70 134 4.0 7.0 0.00 0.00 0.00 17 1023.1
20210512215127 69 106 6.0 10.0 0.00 0.00 0.00 17 1023.4
20210512214127 69 130 6.0 12.0 0.00 0.00 0.00 17 1023.4
20210512214027 69 128 7.0 11.0 0.00 0.00 0.00 17 1023.5
20210512213028 69 130 5.0 7.0 0.00 0.00 0.00 17 1023.8
20210512212029 69 141 4.0 8.0 0.00 0.00 0.00 18 1024.0
20210512211126 69 128 6.0 9.0 0.00 0.00 0.00 17 1023.9
20210512210127 68 135 4.0 7.0 0.00 0.00 0.00 19 1024.3
20210512205127 68 150 7.0 10.0 0.00 0.00 0.00 20 1024.3
20210512204126 67 164 7.0 10.0 0.00 0.00 0.00 23 1024.3
20210512203225 67 164 4.0 8.0 0.00 0.00 0.00 22 1024.3
20210512202228 68 149 7.0 12.0 0.00 0.00 0.00 18 1024.4
20210512201225 67 103 6.0 10.0 0.00 0.00 0.00 19 1024.4
20210512200226 66 127 7.0 10.0 0.00 0.00 0.00 20 1024.6
20210512195226 66 132 7.0 11.0 0.00 0.00 0.00 21 1024.7
20210512194226 66 136 7.0 13.0 0.00 0.00 0.00 21 1024.8
20210512193228 65 167 6.0 8.0 0.00 0.00 0.00 24 1025.1
20210512192228 64 159 4.0 6.0 0.00 0.00 0.00 23 1025.0
20210512191327 64 160 4.0 7.0 0.00 0.00 0.00 23 1025.2
20210512190328 63 110 4.0 7.0 0.00 0.00 0.00 23 1025.2
20210512185328 63 146 6.0 9.0 0.00 0.00 0.00 26 1025.3
20210512184328 62 154 4.0 5.0 0.00 0.00 0.00 29 1025.7
20210512183328 62 170 6.0 9.0 0.00 0.00 0.00 29 1025.6
20210512182426 61 156 5.0 9.0 0.00 0.00 0.00 31 1025.8
20210512182328 61 164 4.0 7.0 0.00 0.00 0.00 31 1025.9
20210512181329 61 132 4.0 8.0 0.00 0.00 0.00 33 1025.8
20210512180427 60 151 6.0 8.0 0.00 0.00 0.00 33 1025.9
20210512175427 60 153 3.0 5.0 0.00 0.00 0.00 33 1025.9
20210512174428 59 150 4.0 7.0 0.00 0.00 0.00 34 1025.9
20210512173429 59 150 4.0 6.0 0.00 0.00 0.00 34 1026.0
20210512172428 58 181 4.0 7.0 0.00 0.00 0.00 34 1025.9
20210512171426 57 120 4.0 7.0 0.00 0.00 0.00 35 1026.1
20210512171326 57 140 4.0 5.0 0.00 0.00 0.00 35 1026.1
20210512170325 57 130 4.0 7.0 0.00 0.00 0.00 37 1026.1
20210512165328 57 171 3.0 5.0 0.00 0.00 0.00 38 1026.1
20210512164342 57 143 3.0 5.0 0.00 0.00 0.00 37 1026.1
20210512163427 57 156 4.0 6.0 0.00 0.00 0.00 36 1026.3
20210512162442 56 160 4.0 7.0 0.00 0.00 0.00 38 1026.1
20210512161526 56 154 3.0 5.0 0.00 0.00 0.00 39 1026.3
20210512160528 56 177 3.0 4.0 0.00 0.00 0.00 35 1026.3
20210512160426 56 159 2.0 4.0 0.00 0.00 0.00 34 1026.3
20210512155443 55 143 4.0 7.0 0.00 0.00 0.00 36 1026.4
20210512154528 54 92 2.0 4.0 0.00 0.00 0.00 41 1026.3
20210512153626 53 135 3.0 5.0 0.00 0.00 0.00 46 1026.3
20210512152644 53 143 5.0 7.0 0.00 0.00 0.00 48 1026.4
20210512151727 53 198 3.0 6.0 0.00 0.00 0.00 50 1026.5
20210512150729 52 164 3.0 5.0 0.00 0.00 0.00 50 1026.4
20210512145728 52 184 2.0 3.0 0.00 0.00 0.00 49 1026.5
20210512144727 52 94 2.0 4.0 0.00 0.00 0.00 50 1026.4
20210512143727 52 174 1.0 2.0 0.00 0.00 0.00 49 1026.4
20210512143625 52 157 2.0 3.0 0.00 0.00 0.00 50 1026.4
20210512142642 52 112 0.0 1.0 0.00 0.00 0.00 49 1026.2
20210512141726 51 108 0.0 1.0 0.00 0.00 0.00 48 1026.4
20210512140728 49 67 0.0 2.0 0.00 0.00 0.00 49 1026.2
20210512135726 47 67 0.0 0.0 0.00 0.00 0.00 51 1026.2
20210512133727 43 67 0.0 0.0 0.00 0.00 0.00 54 1026.0
20210512132726 42 67 0.0 0.0 0.00 0.00 0.00 54 1025.9
20210512131728 41 67 0.0 0.0 0.00 0.00 0.00 55 1025.7
20210512130727 40 67 0.0 0.0 0.00 0.00 0.00 56 1025.6
20210512125726 39 67 0.0 0.0 0.00 0.00 0.00 56 1025.3
20210512124825 40 67 2.0 3.0 0.00 0.00 0.00 58 1025.2
20210512123826 40 292 0.0 0.0 0.00 0.00 0.00 58 1025.2
20210512123727 40 292 0.0 0.0 0.00 0.00 0.00 57 1025.2
20210512122729 41 292 0.0 0.0 0.00 0.00 0.00 55 1025.0
20210512121826 40 292 2.0 3.0 0.00 0.00 0.00 53 1024.9
20210512120841 41 292 2.0 3.0 0.00 0.00 0.00 49 1024.8
20210512115926 41 292 1.0 2.0 0.00 0.00 0.00 48 1024.7
20210512114928 40 270 2.0 3.0 0.00 0.00 0.00 49 1024.7
20210512113928 40 200 1.0 2.0 0.00 0.00 0.00 48 1024.6
20210512112927 41 157 1.0 1.0 0.00 0.00 0.00 48 1024.8
20210512111926 42 112 3.0 3.0 0.00 0.00 0.00 44 1024.6
20210512110927 43 309 2.0 4.0 0.00 0.00 0.00 44 1024.5
20210512110827 43 293 3.0 4.0 0.00 0.00 0.00 43 1024.5
20210512105829 42 273 7.0 10.0 0.00 0.00 0.00 44 1024.4
20210512104926 42 277 6.0 9.0 0.00 0.00 0.00 45 1024.1
20210512103928 42 314 3.0 6.0 0.00 0.00 0.00 48 1024.2
20210512102928 41 247 3.0 4.0 0.00 0.00 0.00 51 1023.9
20210512102026 41 292 0.0 0.0 0.00 0.00 0.00 50 1023.8
20210512101028 41 292 0.0 0.0 0.00 0.00 0.00 49 1023.8
20210512100028 41 292 2.0 2.0 0.00 0.00 0.00 50 1023.8
20210512095027 40 270 2.0 2.0 0.00 0.00 0.00 51 1023.6
20210512094027 39 247 0.0 0.0 0.00 0.00 0.00 51 1023.6
20210512093927 40 247 0.0 0.0 0.00 0.00 0.00 50 1023.6
20210512093026 41 247 0.0 0.0 0.00 0.00 0.00 50 1023.6